Location: Asheville, NC
(35.6000°N, 82.5500°W)
Time: 04:54:50
(UTC-04:00)

Vanguard 2 Rocket - Pass Details

Date: 12 February 2018
Orbit: 554 x 3327 km, 32.9° (Epoch: 20 May)

Event Time Altitude Azimuth Distance (km) Brightness Sun altitude
Exits shadow 01:37:12 35° 90° (E) 4,521 10.3 -65.1°
Drops below altitude 10° 01:46:02 10° 81° (E) 6,048 11.2 -64.1°
Sets 01:50:21 0° 79° (ENE) 6,869 11.7 -63.5°
